TimeEDT,TemperatureF,Dew PointF,Humidity,Sea Level PressureIn,VisibilityMPH,Wind Direction,Wind SpeedMPH,Gust SpeedMPH,PrecipitationIn,Events,Conditions,WindDirDegrees,DateUTC
12:54 AM,55.9,48.0,75,30.25,10.0,NNW,9.2,-,N/A,,Clear,340,2013-09-17 04:54:00
1:54 AM,55.0,46.9,74,30.27,10.0,North,10.4,-,N/A,,Mostly Cloudy,360,2013-09-17 05:54:00
2:09 AM,55.4,46.4,72,30.28,10.0,North,9.2,-,N/A,,Mostly Cloudy,360,2013-09-17 06:09:00
2:54 AM,54.0,46.0,75,30.29,10.0,North,10.4,-,N/A,,Mostly Cloudy,360,2013-09-17 06:54:00
3:54 AM,52.0,46.0,80,30.31,10.0,North,5.8,-,N/A,,Mostly Cloudy,360,2013-09-17 07:54:00
4:54 AM,51.1,41.0,68,30.34,10.0,NNE,11.5,-,N/A,,Clear,20,2013-09-17 08:54:00
5:54 AM,48.9,37.9,66,30.35,10.0,NNE,8.1,-,N/A,,Clear,30,2013-09-17 09:54:00
6:54 AM,46.0,37.0,71,30.37,10.0,North,5.8,-,N/A,,Clear,350,2013-09-17 10:54:00
7:54 AM,50.0,37.9,63,30.39,10.0,NNE,9.2,-,N/A,,Clear,20,2013-09-17 11:54:00
8:54 AM,52.0,37.9,59,30.41,10.0,NE,10.4,-,N/A,,Clear,40,2013-09-17 12:54:00
9:54 AM,54.0,39.0,57,30.42,10.0,NNE,10.4,16.1,N/A,,Clear,30,2013-09-17 13:54:00
10:54 AM,57.0,37.9,49,30.43,10.0,NE,9.2,19.6,N/A,,Clear,50,2013-09-17 14:54:00
11:54 AM,59.0,37.0,44,30.43,10.0,NE,5.8,-,N/A,,Clear,40,2013-09-17 15:54:00
12:54 PM,62.1,37.0,39,30.42,10.0,Variable,5.8,-,N/A,,Clear,0,2013-09-17 16:54:00
1:54 PM,63.0,37.0,38,30.40,10.0,Variable,6.9,-,N/A,,Clear,0,2013-09-17 17:54:00
2:54 PM,64.0,37.0,37,30.38,10.0,NE,9.2,16.1,N/A,,Clear,40,2013-09-17 18:54:00
3:54 PM,64.9,39.0,39,30.36,10.0,Variable,4.6,-,N/A,,Clear,0,2013-09-17 19:54:00
4:54 PM,64.0,36.0,35,30.35,10.0,Variable,5.8,-,N/A,,Clear,0,2013-09-17 20:54:00
5:54 PM,63.0,37.9,40,30.35,10.0,Variable,4.6,-,N/A,,Clear,0,2013-09-17 21:54:00
6:54 PM,57.9,41.0,53,30.35,10.0,Calm,Calm,-,N/A,,Clear,0,2013-09-17 22:54:00
7:54 PM,54.0,43.0,66,30.35,10.0,SE,3.5,-,N/A,,Clear,130,2013-09-17 23:54:00
8:54 PM,50.0,44.1,80,30.35,10.0,Calm,Calm,-,N/A,,Clear,0,2013-09-18 00:54:00
9:54 PM,46.9,43.0,86,30.36,10.0,Calm,Calm,-,N/A,,Clear,0,2013-09-18 01:54:00
10:54 PM,45.0,43.0,93,30.36,10.0,Calm,Calm,-,N/A,,Clear,0,2013-09-18 02:54:00
11:54 PM,44.1,42.1,93,30.36,10.0,Calm,Calm,-,N/A,,Clear,0,2013-09-18 03:54:00